This is the latest recevied weather packets stored in our database for station/object SR2WXM. If no packets are shown the sender has not sent any weather packets the latest 10 day(s).
| Time | Temp. | Humidity | Pressure | Rain* | Wind** | Luminosity | Snow |
|---|---|---|---|---|---|---|---|
| 1778103002 | 10° C | 96% | 1005 hPa | 0 mm | - | - | - |
| 1778102103 | 10.56° C | 96% | 1005 hPa | 0 mm | - | - | - |
| 1778101202 | 10.56° C | 96% | 1005 hPa | 0 mm | - | - | - |
| 1778100301 | 10.56° C | 96% | 1005 hPa | 0 mm | - | - | - |
| 1778099402 | 10.56° C | 95% | 1005 hPa | 0 mm | - | - | - |
| 1778098502 | 10.56° C | 95% | 1005 hPa | 0 mm | - | - | - |
| 1778097603 | 11.67° C | 94% | 1005 hPa | 0 mm | - | - | - |
| 1778096702 | 11.67° C | 92% | 1005 hPa | 0 mm | - | - | - |
| 1778095803 | 11.67° C | 91% | 1005 hPa | 0 mm | - | - | - |
| 1778094903 | 11.67° C | 89% | 1004.7 hPa | 0 mm | - | - | - |
| 1778094003 | 12.78° C | 88% | 1004.7 hPa | 0 mm | - | - | - |
| 1778093102 | 12.78° C | 87% | 1004.7 hPa | 0 mm | - | - | - |
| 1778092204 | 12.78° C | 85% | 1003.7 hPa | 0 mm | - | - | - |
| 1778091303 | 13.89° C | 83% | 1003.7 hPa | 0 mm | - | - | - |
| 1778090404 | 15° C | 81% | 1003.7 hPa | 0 mm | - | - | - |
| 1778089502 | 15.56° C | 77% | 1003.7 hPa | 0 mm | - | - | - |
| 1778088605 | 16.67° C | 73% | 1003.7 hPa | 0 mm | - | - | - |
| 1778087702 | 17.78° C | 72% | 1003.3 hPa | 0 mm | - | - | - |
| 1778086803 | 18.89° C | 69% | 1003 hPa | 0 mm | - | - | - |
| 1778085902 | 18.89° C | 66% | 1003 hPa | 0 mm | - | - | - |
| 1778085003 | 20° C | 63% | 1003 hPa | 0 mm | - | - | - |
| 1778084103 | 20° C | 64% | 1003 hPa | 0 mm | - | - | - |
| 1778083204 | 20° C | 64% | 1003 hPa | 0 mm | - | - | - |
| 1778082303 | 20.56° C | 63% | 1003 hPa | 0 mm | - | - | - |
| 1778081402 | 20° C | 62% | 1003 hPa | 0 mm | - | - | - |
* Rain latest hour (hover to see other rain measurements)
** Current wind speed in m/s (hover to see current wind gust speed)